Home   Weather   Abbotsford   Past weeks

Flag for Canada Past Weather in Abbotsford, British Columbia, Canada — Yesterday and Last 2 Weeks

Now
59 °F

Passing clouds.


Feels Like: 60 °F
Forecast: 55 / 88 °F
Wind: 3 mph from South

Location: Abbotsford

Current Time: Jun 18, 2018 at 2:52:37 am

Latest Report: Jun 18, 2018 at 2:00 am


Visibility: 15 mi

Pressure: 29.88 "Hg

Humidity: 88%

Dew Point: 55 °F

Location of AbbotsfordLocation

Past Weather in Abbotsford — Graph

°F

Abbotsford Temperature Yesterday

Maximum temperature yesterday: 86 °F (at 3:00 pm)
Minimum temperature yesterday: 54 °F (at 5:00 am)
Average temperature yesterday: 71 °F

High & Low Weather Summary for the Past Weeks

 TemperatureHumidityPressure
High86 °F (Jun 17, 3:00 pm)100% (Jun 8, 4:00 pm)30.21 "Hg (Jun 8, 4:00 pm)
Low45 °F (Jun 6, 5:00 am)30% (Jun 16, 7:00 pm)29.83 "Hg (Jun 17, 8:00 pm)
Average58 °F73%30.00 "Hg
* Reported Jun 3 1:00 am — Jun 18 1:00 am, Abbotsford. Weather by CustomWeather, © 2018

Note: Actual official high and low records may vary slightly from our data, if they occured in-between our weather recording intervals... More about our weather records

Advertising

Abbotsford Weather History for the Previous 24 Hours

Scroll right to see more
 ConditionsComfort  
Time TempWeatherWind HumidityBarometerVisibility
1:00 am
Mon, Jun 18
64 °FPassing clouds.No wind78%29.87 "Hg15 mi
12:00 am64 °FPassing clouds.2 mph78%29.86 "Hg15 mi
11:00 pm
Sun, Jun 17
66 °FPassing clouds.2 mph68%29.85 "Hg15 mi
10:00 pm70 °FPassing clouds.3 mph60%29.84 "Hg15 mi
9:00 pm73 °FScattered clouds.3 mph57%29.84 "Hg30 mi
8:00 pm77 °FPartly sunny.5 mph51%29.83 "Hg30 mi
7:00 pm79 °FPartly sunny.7 mph48%29.84 "Hg30 mi
6:00 pm77 °FPartly sunny.10 mph51%29.84 "Hg30 mi
5:00 pm79 °FPartly sunny.9 mph48%29.85 "Hg30 mi
4:00 pm84 °FScattered clouds.9 mph37%29.85 "Hg30 mi
3:00 pm86 °FScattered clouds.9 mph35%29.86 "Hg30 mi
2:00 pm84 °FScattered clouds.7 mph35%29.87 "Hg30 mi
1:00 pm82 °FPassing clouds.5 mph37%29.90 "Hg30 mi
12:00 pm79 °FPassing clouds.3 mph39%29.93 "Hg30 mi
11:00 am77 °FPassing clouds.7 mph42%29.94 "Hg30 mi
10:00 am73 °FPassing clouds.2 mph50%29.96 "Hg30 mi
9:00 am70 °FPassing clouds.9 mph53%29.98 "Hg30 mi
8:00 am64 °FPassing clouds.6 mph68%29.98 "Hg30 mi
7:00 am63 °FScattered clouds.3 mph73%29.98 "Hg30 mi
6:00 am57 °FScattered clouds.3 mph82%29.98 "Hg30 mi
5:00 am54 °FPassing clouds.No wind88%29.98 "Hg30 mi
4:00 am57 °FPassing clouds.2 mph82%29.97 "Hg15 mi
3:00 am59 °FClear.No wind72%29.96 "Hg15 mi
2:00 am61 °FClear.5 mph68%29.96 "Hg15 mi
Weather by CustomWeather, © 2018

See weather overview